Погода в Светлограде

Погода в Светлограде : погода сейчас, прогноз погоды и архив. Всё, что Вы хотите узнать о погоде в Светлограде!

Хотите узнать прогноз погоды в Светлограде? Тогда Вам сюда: Погода в Светлограде

Поиск расширенной информации на нашем сайте:

Другие новости

Новости СМИ2

Главная страница сайта

Новости сайта

02.10.2013

Напоминаем, что на нашем новом сайте вы можете получить высокодетализированные прогнозы погоды по пунктам России, СНГ и мира (включающие важные для авиации метеовеличины, такие как направление и скорость ветра, видимость, явления погоды, количество и форма облачности, нижняя и верхняя граница облачности), а также ознакомиться с разнообразными материалами по авиационной метеорологии и подборкой полезных ссылок на эту тему.

Сайт Метеоцентр.Азия посвящён разработке технологий оптимизации авиаметеорологического обслуживания, включая проектирование и перспективное создание нескольких автоматизированных авиаметеорологических систем:
- система выпуска высокодетальных прогностических карт явлений погоды для нижнего воздушного пространства по России и ближнему зарубежью;
- система верификации прогнозов TAF (выпускаемых синоптиками официальных АМСГ РФ и ближнего зарубежья) и AUTOTAF (выпускаемых сайтом Метеоцентр.Азия) - выявление ошибок, онлайн-сопоставление с фактической погодой METAR, автоматическое внесение коррективов в прогнозы при резком отклонении фактической погоды от прогноза, подсчёт оправдываемости прогнозов по элементам и в целом;
- система обработки, анализа и отображения авиаметеорологической информации для применения провайдерами метеорологической информации.


Погода в Светлограде - сегодня

Время (UTC), дата Ветер
(°,м/с) 
Видим.   Явления Облачность Т
(°С)
Тd
(°С)
f(%) Тe
(°С)
Pmin
(гПа)
dP
(гПа)
Po
(мм)
O2
(г/м3)
Тmin Tmax R s Состояние
почвы
03 25.06.17 190 (Ю) 20000 м    10/10 600 м 
[Sc]
+19.5 +14.1 71 +28  1011.5  0.1  746  278  +18.6        сухая 
06 25.06.17 260 (З) 20000 м    10/10 600 м 
[Sc]
+21.5 +14.6 65 +30  1012.4  1.1  747  276           
09 25.06.17 300 (СЗ) 10 км  слаб. ливневой дождь  10/10 300 м кучево-дожд. 
[Cb cap]
+19.2 +18.3 95 +35  1013.9  1.4  748  277           
12 25.06.17 320 (СЗ) 20000 м  {ливн. осадки}  8/8 600 м 
[Sc diur, vesp]
+24.4 +14.2 53 +32  1014.1  0.4  748  274           
15 25.06.17 280 (З) 20000 м    6/6 600 м 
[Sc diur, vesp]
+24.7 +10.2 40 +26  1015  0.9  749  275    +25.4     
18 25.06.17 140 (ЮВ) 20000 м    1/1 600 м 
[Sc diur, vesp]
+17.9 +13.3 74 +25  1017  1.7  750  281           
21 25.06.17 тихо ()   20000 м    ясно 
+14.5 +13 91 +20  1018.2  0.9  751  285           
00 26.06.17 тихо ()   20000 м    ясно 
+13.5 +12.8 96 +19  1018.2  0.1  751  286           
03 26.06.17 тихо ()   20000 м    ясно 
+16.7 +14.4 86 +24  1017.7  -0.2  751  282  +13.5        сухая 
06 26.06.17 230 (ЮЗ) 20000 м    ясно 
+25.3 +13.5 48 +31  1016.9  -0.3  751  274           
09 26.06.17 110 (В) 20000 м    6/6 1000 м 
[Cu med, cong]
+27.7 +12 38 +32  1016.5  -0.3  750  272           
12 26.06.17 120 (ЮВ) 20000 м    6/6 1000 м 
[Cu med, cong]
+29.3 +11.5 33 +33  1015  -1.3  749  271           
15 26.06.17 130 (ЮВ) 20000 м    3/3 1000 м 
[Cu med, cong]
+28.8 +10.7 32 +31  1014.2  -0.8  749  271    +29.6       
18 26.06.17 120 (ЮВ) 20000 м    ясно 
+21.4 +15 67 +30  1014.4  -0.2  749  277           
21 26.06.17 100 (В) 20000 м    ясно 
+21.1 +11.1 53 +24  1014.3  -0.2  748  278           
00 27.06.17 тихо ()   20000 м    ясно 
+17.6 +11.9 69 +21  1014.2  -0.3  748  281           
03 27.06.17 100 (В) 20000 м    ясно 
+18.8 +13.1 69 +26  1014.6  0.5  749  280  +17.6        сухая 
06 27.06.17 130 (ЮВ) 20000 м    3/0 верхняя 
[Ci fib]
+23.1 +15.2 61 +32  1013.6  -0.7  748  275           
09 27.06.17 120 (ЮВ) 20000 м    6/0 верхняя 
[Ci]
+28.1 +13.7 41 +35  1011.8  -1.5  747  270           
12 27.06.17 070 (В) 20000 м    8/0 верхняя 
[Ci]
+30.8 +12.7 33 +36  1010.2  -1.5  746  268           
15 27.06.17 140 (ЮВ) 20000 м    3/0 верхняя 
[Ci fib]
+31.2 +13.9 35 +38  1009.4  -0.8  745  267    +31.9       
18 27.06.17 тихо ()   20000 м    8/3 1000 м верхняя 
[Sc|Ci sp]
+24 +17.3 66 +37  1010.7  746  272           
21 27.06.17 140 (ЮВ) 20000 м    ясно 
+21.7 +18.1 80 +36  1009.5  -1.4  745  274           
00 28.06.17 тихо ()   20000 м    3/3 1000 м 
[Sc]
+20.3 +18.7 91 +36  1010.3  0.8  746  275           
03 28.06.17 тихо ()   20000 м    3/0 верхняя 
[Ci sp]
+22.1 +19.5 85 +40  1010.8  0.5  746  273  +18.7        сухая 
Время (UTC), дата Ветер
(°,м/с) 
Видим.   Явления Облачность Т
(°С)
Тd
(°С)
f(%) Тe
(°С)
Pmin
(гПа)
dP
(гПа)
Po
(мм)
O2
(г/м3)
Тmin Tmax R s Состояние
почвы

Для получения пояснительной информации подведите курсор к названию столбца.

ПОГОДА в Светлограде - архив

Всё, что Вы хотите узнать о погоде в Светлограде - удобно и подробно!

Выберите нужную дату (начиная с 1 января 2015* года) и нажмите кнопку "Найти".
Будут отображены архивные сводки погоды по пункту Светлоград, начиная с указанной даты.


Отображать данные в формате CSV (для использования в таблицах Excel)


Внимание! Наш архив погоды предназначен исключительно для личного некоммерческого использования в познавательных целях. Если Вам необходимы официальные справки о состоянии погоды (для производственных, юридических, коммерческих и т.п. целей), обращайтесь в органы Росгидромета.

*Примечание: данная дата относится к архиву по метеостанциям СССР (Россия, СНГ, Балтия).
Архив по метеостанциям Зарубежной Европы и Азии (кроме Китая) хранится 10 дней, по другим регионам земного шара (Китай, Африка, Америка, Австралия, Океания) - 1 день.

Светлоград - район местоположения метеостанции


Название, широта, долгота, высота метеостанции:
Светлоград 45.3°ш. 42.9°д. 140 м над ур. моря [Российская Федерация]

Дополнительная информация

В oтличие oт бoльшинства пoгoдных сайтoв мы публикуем пoдрoбную метеoинфoрмацию в детальнoм прoфессиoнальнoм фoрмате.

Характеристики температуры и влажнoсти вoздуха измеряются на высoте 2 м в тени вдали oт зданий и деревьев.
Скoрoсть ветра измеряется на высoте 10 м (на урoвне рoста челoвека скoрoсть ветра ниже в 1.5-2 раза). Если метеoстанция нахoдится в гoрoде или в лесу, тo скoрoсть ветра занижена на 2-4 м/с пo сравнению с oткрытым местoм. Скoрoсть ветра над акватoриями крупных рек и oзёр, а также на вершинах хoлмoв на 2-5 м/с выше, чем в oбычных услoвиях.
Атмoсфернoе давление в разных тoчках местнoсти мoжет значительнo oтличаться oт давления на метеoстанции, в зависимoсти oт услoвий рельефа (при пoдъёме на 10 м давление пoнижается примернo на 1 мм рт.ст.).